Back to catalog

IRIDIUM 33 DEB

AlivePO
NORAD 34077·DEBRIS·🇺🇸 United States

Launched Sep 14, 1997 from Baikonur Cosmodrome

Loading…

Next Passes (next 24 hours)

TLE

FreshSource: Space-Track

Epoch: Sep 14, 2026, 02:11 UTC

1 34077U 97051CL  26257.09137242  .00004383  00000-0  74460-3 0  9995
2 34077  86.3807 289.7551 0010955 147.8141 233.2522 14.68934752923707

Track IRIDIUM 33 DEB in real time with AllMySat

Download on the App Store